Lid_Strength_Index
2 3 5 5 6 7 9 9 9 11 12 13 12 12 12 13 13 14 13 15 15 16 16 16 16 16 17 17 18 18 18 18 20 19 18 18 18 18 17 16 16 16 16
9 2 4 5 5 7 9 9 9 10 12 12 12 12 12 12 12 13 14 14 15 16 16 16 16 16 17 17 18 18 18 18 19 19 19 18 18 18 17 17 16 15 16
12 8 3 5 5 6 9 9 10 10 11 12 12 13 13 12 13 12 13 14 13 14 15 15 16 17 18 17 18 18 18 17 18 19 19 18 18 18 18 18 17 17 16
13 10 6 4 5 6 9 9 10 10 11 12 11 12 12 12 12 12 13 13 14 14 15 15 16 16 16 17 17 18 18 18 18 19 18 18 18 18 18 18 18 18 17
14 11 10 6 5 7 9 9 9 10 11 11 11 11 12 12 12 13 13 13 14 15 15 16 15 15 13 15 16 17 17 18 18 19 19 18 18 18 19 18 19 18 17
15 14 11 9 5 7 8 9 9 10 11 11 12 12 12 13 11 11 12 13 14 14 16 16 15 13 13 12 12 13 15 17 18 19 19 19 18 19 19 19 19 20 22
15 13 11 11 8 6 8 9 10 10 11 11 12 12 13 12 10 10 10 13 14 14 14 15 15 14 13 14 12 12 13 13 15 17 19 18 18 19 19 19 19 21 21
15 15 14 13 12 9 9 9 10 10 11 12 12 12 12 13 10 10 9 13 13 13 13 14 14 14 14 14 14 14 15 14 14 15 17 17 18 18 18 18 19 19 19
17 16 15 14 13 11 10 9 10 11 11 12 12 13 13 13 10 9 10 13 14 14 14 14 14 14 12 12 14 14 15 16 13 13 14 14 14 15 16 18 20 22 23
18 17 16 15 14 13 11 10 11 11 13 13 14 13 12 13 10 9 10 13 15 15 15 15 13 14 12 11 14 15 16 16 16 17 17 17 17 18 17 18 19 24 25
17 17 16 15 14 13 12 11 12 13 14 14 14 15 14 13 13 10 10 14 15 16 16 16 15 12 12 11 13 14 15 16 15 17 18 19 19 18 19 19 19 20 23
18 18 17 15 14 14 13 13 13 14 14 15 16 16 15 15 12 10 10 13 13 16 16 16 14 11 11 11 13 13 13 15 17 18 18 19 19 19 19 19 19 19 19
18 18 17 16 15 15 15 14 15 14 15 16 16 16 16 16 14 11 10 12 13 15 15 14 13 12 11 12 13 13 14 18 18 19 20 20 20 19 19 19 19 19 19
19 19 18 17 15 15 15 15 15 14 15 15 16 16 16 15 14 13 12 13 13 15 14 14 13 12 12 13 13 16 17 18 18 19 20 20 20 20 20 20 21 20 21
19 18 19 17 17 15 15 15 14 14 14 14 14 14 15 15 13 11 12 14 14 15 15 14 14 15 17 18 19 19 19 18 20 20 21 21 21 21 21 21 21 22 25
19 18 19 17 17 15 16 15 13 13 12 12 12 13 13 12 11 10 11 12 13 13 15 15 17 18 19 19 20 20 19 19 20 21 21 21 22 23 22 21 22 23 24
19 18 19 18 18 16 16 15 15 13 12 11 11 12 11 11 10 10 11 12 12 12 16 17 18 18 19 19 20 20 21 20 20 21 22 23 24 24 23 23 23 23 23
18 17 17 19 19 17 15 15 15 15 14 14 11 11 11 11 10 10 11 12 13 15 17 18 19 19 19 20 20 21 21 21 22 22 23 24 26 25 25 26 25 25 23
17 17 20 21 19 16 17 15 14 14 14 14 13 11 11 10 9 10 10 13 17 18 19 19 19 19 20 20 21 21 21 22 21 23 24 25 26 27 26 26 25 20 20
19 15 14 20 21 18 18 18 16 14 14 14 14 13 12 11 12 14 17 17 18 19 19 19 20 20 21 21 21 21 22 21 22 22 22 23 24 25 25 25 24 24 22
19 18 14 15 20 20 18 17 16 16 15 15 14 12 11 17 18 17 18 18 19 19 20 20 20 21 21 21 22 22 21 21 22 22 22 22 23 23 22 22 23 22 22
19 20 20 21 20 20 20 16 16 16 16 15 15 14 14 17 18 19 19 19 19 19 19 20 20 21 21 22 22 22 22 22 21 22 23 22 22 21 21 22 22 21 22
19 20 20 20 18 15 17 16 16 16 16 17 18 18 18 18 19 19 19 19 19 19 19 20 20 21 21 21 21 21 22 21 21 21 22 21 21 21 21 21 21 21 21
17 18 18 17 17 17 17 17 17 17 18 18 18 19 19 19 20 20 20 20 20 20 20 20 20 20 21 21 20 20 21 21 20 21 21 21 21 20 20 21 21 22 22
17 17 17 18 18 18 18 18 18 19 19 19 19 19 19 20 20 20 20 20 20 20 21 20 20 21 21 21 21 20 19 17 16 17 18 18 18 19 20 21 21 21 22
16 17 17 17 18 18 18 18 19 19 19 19 19 19 20 20 20 20 20 20 21 21 21 21 21 21 21 21 20 19 16 15 16 14 15 17 19 19 19 21 21 20 20